Starlink 31334

operational
NORAD ID: 59157 Int'l Des: 2024-044 Owner: SPXS Country: US Constellation: starlink
LEOCIRCULAR

About Starlink 31334

Description loading...

Live Position

Loading 3D Globe...

Upcoming Passes

Altitude History

Altitude vs Time

uPlot chart will show altitude changes over time

Two-Line Element Set

1 59157U 24044F 25348.09466718 .00005773 00000-0 21924-3 0 9997
2 59157 43.0002 233.9722 0000889 274.0323 86.0427 15.27566131100434
Epoch: Dec 14, 2025 • Age: 32 hours

Current Status

Altitude 486.6 km
Velocity 7.63 km/s
Sub-Earth Point 42.02°N, 96.69°E
Launch Date Mar 4, 2024
Age 1.7 years
Type internet

Technical Details

Classification Payload
Mass 730.00 kg
Dry Mass 700.00 kg
Total Mass 730.00 kg
Length 0.30 m
Diameter 4.10 m
Span 29.00 m
Shape Box + pan
Manufacturer SPXS
Bus Type Starlink V2M
Phase Status In Orbit
Owner/State SPXS/US

Large Constellations

Loading constellations...